Terminal Aerodrome Forecast
Issued by NWS

Home | Current Version | Previous Version | Text Only | Print | Product List | Glossary On
Versions: 1 2 3 4 5 6 7 8 9 10 11 12 13 14 15 16 17 18 19 20 21 22 23 24 25 26 27 28 29 30 31 32 33 34 35 36 37 38 39 40 41 42 43 44 45 46 47 48 49 50
000
FTUS44 KLIX 231700 RRA
TAFASD
TAF
KASD 231753Z 2318/2418 18014G22KT P6SM SCT018 BKN025
     FM232200 19010KT P6SM SCT025
     FM240300 19006KT 5SM BR BKN005
      TEMPO 2405/2409 1SM BR OVC003
     FM241200 29003KT P6SM SCT007
     FM241400 30006KT P6SM SKC=

USA.gov is the U.S. government's official web portal to all federal, state and local government web resources and services.